When you browse on this site, cookies collect data to enhance your experience and personalize the content and advertising you see.
Visit our Privacy Policy to learn more. By continuing to use the site, you agree to this use of cookies and data.
  • In Romania
  • List of Countries
  • For 7 days
  • Water Temperature
  • Satellite Maps
  • Weather Map
  • Weather Widgets
  • user-avatar
    Login

    Hourly Weather Arneguy

    Today, 22 July, Monday

    Time Temperature Precipitation Wind Pressure Humidity
    00:00 +19°C° 0 mm 1 mps 708 mmHg 96%
    01:00 +18°C° 0.1 mm 1 mps 708 mmHg 95%
    02:00 +16°C° 0.1 mm 0 mps 707 mmHg 94%
    03:00 +16°C° 0.1 mm 0 mps 707 mmHg 93%
    04:00 +17°C° 0.1 mm 0 mps 707 mmHg 91%
    05:00 +19°C° 0.1 mm 1 mps 707 mmHg 89%
    06:00 +18°C° 0 mm 0 mps 707 mmHg 89%
    07:00 +23°C° 0 mm 1 mps 708 mmHg 77%
    08:00 +25°C° 0 mm 1 mps 708 mmHg 64%
    09:00 +28°C° 0 mm 1 mps 708 mmHg 52%
    10:00 +30°C° 0 mm 1 mps 708 mmHg 46%
    11:00 +32°C° 0 mm 2 mps 708 mmHg 41%
    12:00 +35°C° 0 mm 2 mps 708 mmHg 35%
    13:00 +35°C° 0 mm 2 mps 708 mmHg 33%
    14:00 +36°C° 0 mm 2 mps 707 mmHg 31%
    15:00 +36°C° 0 mm 2 mps 707 mmHg 29%
    16:00 +35°C° 0 mm 2 mps 707 mmHg 37%
    17:00 +33°C° 0 mm 1 mps 706 mmHg 45%
    18:00 +31°C° 0 mm 1 mps 706 mmHg 52%
    19:00 +29°C° 0 mm 1 mps 706 mmHg 52%
    20:00 +27°C° 0 mm 1 mps 706 mmHg 53%
    21:00 +25°C° 0 mm 2 mps 706 mmHg 53%
    22:00 +25°C° 0 mm 2 mps 706 mmHg 49%
    23:00 +25°C° 0 mm 2 mps 705 mmHg 46%

    Tomorrow, 23 July, Tuesday

    Time Temperature Precipitation Wind Pressure Humidity
    00:00 +24°C° 0 mm 2 mps 705 mmHg 42%
    01:00 +24°C° 0 mm 2 mps 705 mmHg 42%
    02:00 +24°C° 0 mm 2 mps 705 mmHg 42%
    03:00 +23°C° 0 mm 2 mps 704 mmHg 42%
    04:00 +23°C° 0 mm 2 mps 704 mmHg 44%
    05:00 +23°C° 0 mm 2 mps 704 mmHg 46%
    06:00 +23°C° 0 mm 2 mps 704 mmHg 47%
    07:00 +26°C° 0 mm 3 mps 704 mmHg 41%
    08:00 +29°C° 0 mm 3 mps 705 mmHg 34%
    09:00 +33°C° 0 mm 3 mps 705 mmHg 28%
    10:00 +35°C° 0 mm 4 mps 705 mmHg 25%
    11:00 +36°C° 0 mm 4 mps 705 mmHg 22%
    12:00 +38°C° 0 mm 4 mps 705 mmHg 19%
    13:00 +38°C° 0 mm 4 mps 705 mmHg 19%
    14:00 +38°C° 0 mm 4 mps 704 mmHg 19%
    15:00 +38°C° 0 mm 4 mps 704 mmHg 18%
    16:00 +37°C° 0 mm 3 mps 703 mmHg 24%
    17:00 +35°C° 0 mm 2 mps 703 mmHg 31%
    18:00 +32°C° 0 mm 2 mps 703 mmHg 37%
    19:00 +29°C° 0 mm 1 mps 703 mmHg 47%
    20:00 +26°C° 0 mm 1 mps 703 mmHg 57%
    21:00 +22°C° 0 mm 1 mps 703 mmHg 67%
    22:00 +22°C° 0 mm 1 mps 703 mmHg 69%
    23:00 +21°C° 0 mm 1 mps 703 mmHg 71%

    Day after tomorrow, 24 July, Wednesday

    Time Temperature Precipitation Wind Pressure Humidity
    00:00 +21°C° 0 mm 1 mps 704 mmHg 74%
    01:00 +21°C° 0 mm 1 mps 703 mmHg 73%
    02:00 +21°C° 0 mm 1 mps 703 mmHg 72%
    03:00 +21°C° 0 mm 1 mps 703 mmHg 71%
    04:00 +21°C° 0 mm 1 mps 703 mmHg 71%
    05:00 +21°C° 0 mm 1 mps 703 mmHg 71%
    06:00 +21°C° 0 mm 1 mps 703 mmHg 71%
    07:00 +24°C° 0 mm 1 mps 703 mmHg 62%
    08:00 +26°C° 0 mm 1 mps 703 mmHg 54%
    09:00 +29°C° 0 mm 2 mps 704 mmHg 45%
    10:00 +30°C° 0 mm 2 mps 704 mmHg 41%
    11:00 +32°C° 0 mm 2 mps 704 mmHg 36%
    12:00 +35°C° 0 mm 3 mps 704 mmHg 31%
    13:00 +36°C° 0 mm 3 mps 703 mmHg 29%
    14:00 +36°C° 0 mm 2 mps 703 mmHg 28%
    15:00 +37°C° 0 mm 2 mps 702 mmHg 26%
    16:00 +36°C° 0 mm 2 mps 702 mmHg 31%
    17:00 +34°C° 0 mm 2 mps 701 mmHg 37%
    18:00 +32°C° 0 mm 1 mps 701 mmHg 42%
    19:00 +30°C° 0 mm 2 mps 701 mmHg 42%
    20:00 +28°C° 0 mm 2 mps 701 mmHg 42%
    21:00 +27°C° 0 mm 2 mps 701 mmHg 41%
    22:00 +26°C° 0 mm 2 mps 701 mmHg 39%
    23:00 +26°C° 0 mm 2 mps 701 mmHg 37%

    25 July, Thursday

    Time Temperature Precipitation Wind Pressure Humidity
    00:00 +26°C° 0 mm 2 mps 701 mmHg 35%
    01:00 +25°C° 0 mm 2 mps 701 mmHg 39%
    02:00 +24°C° 0 mm 2 mps 700 mmHg 42%
    03:00 +23°C° 0 mm 2 mps 700 mmHg 46%
    04:00 +23°C° 0 mm 2 mps 700 mmHg 48%
    05:00 +23°C° 0 mm 2 mps 701 mmHg 50%
    06:00 +21°C° 0 mm 2 mps 701 mmHg 53%
    07:00 +25°C° 0 mm 2 mps 701 mmHg 47%
    08:00 +28°C° 0 mm 2 mps 702 mmHg 41%
    09:00 +31°C° 0 mm 2 mps 703 mmHg 34%
    10:00 +32°C° 0 mm 2 mps 703 mmHg 32%
    11:00 +35°C° 0 mm 2 mps 703 mmHg 29%
    12:00 +36°C° 0 mm 3 mps 703 mmHg 27%
    13:00 +36°C° 0 mm 3 mps 702 mmHg 29%
    14:00 +35°C° 0 mm 3 mps 702 mmHg 31%
    15:00 +35°C° 0 mm 3 mps 702 mmHg 33%
    16:00 +31°C° 0 mm 3 mps 701 mmHg 45%
    17:00 +28°C° 0 mm 2 mps 701 mmHg 57%
    18:00 +26°C° 0 mm 2 mps 701 mmHg 69%
    19:00 +24°C° 0 mm 2 mps 701 mmHg 78%
    20:00 +21°C° 0 mm 2 mps 701 mmHg 86%
    21:00 +19°C° 0 mm 2 mps 702 mmHg 94%
    22:00 +19°C° 0 mm 2 mps 702 mmHg 95%
    23:00 +18°C° 0 mm 2 mps 702 mmHg 95%

    26 July, Friday

    Time Temperature Precipitation Wind Pressure Humidity
    00:00 +18°C° 0 mm 2 mps 702 mmHg 95%
    01:00 +18°C° 0 mm 1 mps 702 mmHg 95%
    02:00 +18°C° 0 mm 1 mps 702 mmHg 95%
    03:00 +18°C° 0 mm 1 mps 702 mmHg 95%
    04:00 +18°C° 0.1 mm 1 mps 702 mmHg 95%
    05:00 +18°C° 0.1 mm 1 mps 702 mmHg 95%
    06:00 +18°C° 0.1 mm 1 mps 702 mmHg 95%
    07:00 +18°C° 0.1 mm 2 mps 702 mmHg 95%
    08:00 +18°C° 0.1 mm 2 mps 702 mmHg 94%
    09:00 +18°C° 0.1 mm 2 mps 703 mmHg 93%
    10:00 +18°C° 0.1 mm 2 mps 703 mmHg 90%
    11:00 +19°C° 0.1 mm 2 mps 702 mmHg 87%
    12:00 +19°C° 0.1 mm 2 mps 702 mmHg 84%
    13:00 +20°C° 0.2 mm 2 mps 702 mmHg 82%
    14:00 +20°C° 0.2 mm 3 mps 702 mmHg 79%
    15:00 +20°C° 0.2 mm 3 mps 702 mmHg 77%
    16:00 +20°C° 0.4 mm 3 mps 702 mmHg 82%
    17:00 +19°C° 0.4 mm 3 mps 702 mmHg 88%
    18:00 +18°C° 0.4 mm 3 mps 702 mmHg 93%
    19:00 +17°C° 1.7 mm 3 mps 703 mmHg 95%
    20:00 +17°C° 1.7 mm 3 mps 703 mmHg 97%
    21:00 +16°C° 1.7 mm 2 mps 704 mmHg 98%
    22:00 +16°C° 5.3 mm 3 mps 704 mmHg 98%
    23:00 +16°C° 5.3 mm 3 mps 704 mmHg 98%

    27 July, Saturday

    Time Temperature Precipitation Wind Pressure Humidity
    00:00 +16°C° 5.3 mm 3 mps 703 mmHg 98%
    01:00 +16°C° 0.7 mm 3 mps 703 mmHg 98%
    02:00 +15°C° 0.7 mm 2 mps 703 mmHg 98%
    03:00 +15°C° 0.7 mm 2 mps 703 mmHg 98%
    04:00 +15°C° 0.3 mm 2 mps 703 mmHg 98%
    05:00 +15°C° 0.3 mm 2 mps 703 mmHg 98%
    06:00 +15°C° 0.3 mm 2 mps 703 mmHg 98%
    07:00 +15°C° 0.3 mm 2 mps 703 mmHg 98%
    08:00 +16°C° 0.3 mm 2 mps 704 mmHg 97%
    09:00 +16°C° 0.3 mm 2 mps 704 mmHg 96%
    10:00 +16°C° 0.1 mm 2 mps 704 mmHg 95%
    11:00 +16°C° 0.1 mm 2 mps 704 mmHg 93%
    12:00 +17°C° 0.1 mm 2 mps 704 mmHg 92%
    13:00 +17°C° 0.1 mm 2 mps 704 mmHg 89%
    14:00 +18°C° 0.1 mm 2 mps 704 mmHg 87%
    15:00 +18°C° 0.1 mm 2 mps 704 mmHg 84%
    16:00 +18°C° 0 mm 2 mps 704 mmHg 85%
    17:00 +17°C° 0 mm 2 mps 704 mmHg 85%
    18:00 +17°C° 0 mm 2 mps 704 mmHg 86%
    19:00 +16°C° 0 mm 2 mps 704 mmHg 88%
    20:00 +15°C° 0 mm 1 mps 704 mmHg 90%
    21:00 +15°C° 0 mm 1 mps 704 mmHg 93%
    22:00 +15°C° 0 mm 1 mps 704 mmHg 92%
    23:00 +14°C° 0 mm 1 mps 704 mmHg 92%
    Show more